Simultaneous Nadir Overpasses (SNOs) Predictions

Prediction of SNOs between AQUA and GOES-15 Satellite Orbit:

Table of predicted SNOs for the next 14.0 days since TLE Epoch: 12/22/2012
Index Date Time (AQUA) AQUA Lat,Lon GOES-15 Lat,Lon Distance(km) Time Diff (sec)
1 12/22/2012 22:29:13 0.52,-133.55 0.09,-135.46 217.96 80
2 12/23/2012 10:50:29 0.57,-138.71 -0.10,-135.49 366.12 80
3 12/25/2012 10:38:19 -0.01,-135.75 -0.09,-135.49 31.02 80
4 12/27/2012 10:26:10 -0.64,-132.80 -0.08,-135.48 303.60 80
5 12/27/2012 22:47:35 -0.46,-138.00 0.09,-135.45 290.61 80
6 12/29/2012 22:35:26 0.17,-135.05 0.09,-135.43 43.11 80
7 12/31/2012 22:23:17 0.78,-132.10 0.09,-135.41 376.27 80
8 01/01/2013 10:44:34 0.27,-137.27 -0.10,-135.44 207.86 80
9 01/03/2013 10:32:25 -0.33,-134.32 -0.10,-135.41 124.41 80
10 01/03/2013 22:53:50 -0.77,-139.51 0.10,-135.37 471.03 80




NCC Satellite Simultaneous Nadir Overpasses (SNOs) Prediction Service
